| time (UTC) | temp F | wind direction | speed MPH | gust MPH | rain 1hr in | rain 24hr in | rain mn in | humidity % | barometer mb |
| 20260505172847 | 49 | 193 | 9.0 | 18.0 | 0.00 | 0.00 | 0.00 | 39 | 1004.6 |
| 20260505172410 | 49 | 288 | 8.0 | 16.0 | 0.00 | 0.00 | 0.00 | 39 | 1004.6 |
| 20260505171913 | 50 | 253 | 9.0 | 15.0 | 0.00 | 0.00 | 0.00 | 39 | 1004.6 |
| 20260505171328 | 50 | 336 | 6.0 | 13.0 | 0.00 | 0.00 | 0.00 | 41 | 1004.5 |
| 20260505170836 | 49 | 305 | 6.0 | 19.0 | 0.00 | 0.00 | 0.00 | 41 | 1004.4 |
| 20260505170405 | 49 | 320 | 10.0 | 19.0 | 0.00 | 0.00 | 0.00 | 39 | 1004.4 |
| 20260505165910 | 50 | 313 | 7.0 | 16.0 | 0.00 | 0.00 | 0.00 | 38 | 1004.4 |
| 20260505165328 | 49 | 281 | 7.0 | 16.0 | 0.00 | 0.00 | 0.00 | 42 | 1004.5 |
| 20260505164853 | 49 | 271 | 7.0 | 16.0 | 0.00 | 0.00 | 0.00 | 40 | 1004.5 |
| 20260505164413 | 49 | 281 | 6.0 | 13.0 | 0.00 | 0.00 | 0.00 | 41 | 1004.4 |
| 20260505163833 | 50 | 295 | 7.0 | 13.0 | 0.00 | 0.00 | 0.00 | 41 | 1004.5 |
| 20260505163355 | 50 | 302 | 5.0 | 13.0 | 0.00 | 0.00 | 0.00 | 39 | 1004.4 |
| 20260505162859 | 50 | 115 | 3.0 | 13.0 | 0.00 | 0.00 | 0.00 | 40 | 1004.3 |
| 20260505162408 | 50 | 295 | 6.0 | 11.0 | 0.00 | 0.00 | 0.00 | 39 | 1004.4 |
| 20260505161909 | 49 | 235 | 6.0 | 11.0 | 0.00 | 0.00 | 0.00 | 42 | 1004.4 |
| 20260505161427 | 48 | 283 | 6.0 | 14.0 | 0.00 | 0.00 | 0.00 | 42 | 1004.4 |
| 20260505160829 | 48 | 289 | 7.0 | 14.0 | 0.00 | 0.00 | 0.00 | 39 | 1004.4 |
| 20260505160340 | 49 | 319 | 3.0 | 11.0 | 0.00 | 0.00 | 0.00 | 42 | 1004.3 |
| 20260505152839 | 47 | 278 | 5.0 | 13.0 | 0.00 | 0.00 | 0.00 | 45 | 1004.6 |
| 20260505152347 | 48 | 248 | 4.0 | 17.0 | 0.00 | 0.00 | 0.00 | 46 | 1004.5 |
| 20260505151855 | 48 | 328 | 6.0 | 17.0 | 0.00 | 0.00 | 0.00 | 46 | 1004.6 |
| 20260505151407 | 48 | 312 | 6.0 | 17.0 | 0.00 | 0.00 | 0.00 | 45 | 1004.5 |
| 20260505150824 | 49 | 251 | 6.0 | 17.0 | 0.00 | 0.00 | 0.00 | 44 | 1004.6 |
| 20260505150446 | 48 | 299 | 4.0 | 9.0 | 0.00 | 0.00 | 0.00 | 44 | 1004.6 |
| 20260505140341 | 45 | 241 | 4.0 | 8.0 | 0.00 | 0.00 | 0.00 | 52 | 1004.7 |
| 20260505124841 | 40 | 304 | 3.0 | 6.0 | 0.00 | 0.00 | 0.00 | 62 | 1004.0 |
| 20260505124406 | 40 | 321 | 2.0 | 8.0 | 0.00 | 0.00 | 0.00 | 63 | 1003.9 |
| 20260505123915 | 40 | 320 | 3.0 | 8.0 | 0.00 | 0.00 | 0.00 | 63 | 1003.8 |
| 20260505123416 | 39 | 313 | 1.0 | 6.0 | 0.00 | 0.00 | 0.00 | 64 | 1003.8 |
| 20260505122832 | 39 | 316 | 2.0 | 6.0 | 0.00 | 0.00 | 0.00 | 65 | 1003.8 |
| 20260505122334 | 38 | 296 | 2.0 | 6.0 | 0.00 | 0.00 | 0.00 | 67 | 1003.7 |
| 20260505121847 | 38 | 325 | 2.0 | 6.0 | 0.00 | 0.00 | 0.00 | 68 | 1003.7 |
| 20260505121409 | 37 | 292 | 2.0 | 6.0 | 0.00 | 0.00 | 0.00 | 69 | 1003.8 |
| 20260505120855 | 36 | 285 | 1.0 | 4.0 | 0.00 | 0.00 | 0.00 | 71 | 1003.9 |
| 20260505120354 | 35 | 307 | 0.0 | 1.0 | 0.00 | 0.00 | 0.00 | 73 | 1003.9 |
| 20260505115916 | 35 | 305 | 0.0 | 1.0 | 0.00 | 0.00 | 0.00 | 74 | 1003.8 |
| 20260505115323 | 34 | 295 | 0.0 | 1.0 | 0.00 | 0.00 | 0.00 | 76 | 1003.8 |
| 20260505114846 | 33 | 295 | 0.0 | 1.0 | 0.00 | 0.00 | 0.00 | 78 | 1003.8 |
| 20260505114406 | 32 | 293 | 0.0 | 1.0 | 0.00 | 0.00 | 0.00 | 79 | 1003.8 |
| 20260505113827 | 30 | 294 | 0.0 | 0.0 | 0.00 | 0.00 | 0.00 | 81 | 1003.6 |
| 20260505113338 | 30 | 295 | 0.0 | 0.0 | 0.00 | 0.00 | 0.00 | 82 | 1003.7 |
| 20260505112904 | 29 | 295 | 0.0 | 0.0 | 0.00 | 0.00 | 0.00 | 82 | 1003.6 |
| 20260505112416 | 29 | 293 | 0.0 | 0.0 | 0.00 | 0.00 | 0.00 | 83 | 1003.6 |
| 20260505111842 | 29 | 295 | 0.0 | 0.0 | 0.00 | 0.00 | 0.00 | 82 | 1003.5 |
| 20260505110848 | 29 | 295 | 0.0 | 0.0 | 0.00 | 0.00 | 0.00 | 82 | 1003.3 |
| 20260505110414 | 29 | 294 | 0.0 | 0.0 | 0.00 | 0.00 | 0.00 | 82 | 1003.3 |
| 20260505101838 | 30 | 295 | 0.0 | 0.0 | 0.00 | 0.00 | 0.00 | 85 | 1003.0 |
| 20260505101406 | 30 | 295 | 0.0 | 0.0 | 0.00 | 0.00 | 0.00 | 84 | 1002.8 |
| 20260505100824 | 30 | 295 | 0.0 | 0.0 | 0.00 | 0.00 | 0.00 | 85 | 1002.7 |
| 20260505100348 | 30 | 295 | 0.0 | 0.0 | 0.00 | 0.00 | 0.00 | 84 | 1002.6 |
| 20260505095911 | 30 | 295 | 0.0 | 0.0 | 0.00 | 0.00 | 0.00 | 85 | 1002.6 |
| 20260505095336 | 30 | 293 | 0.0 | 0.0 | 0.00 | 0.00 | 0.00 | 84 | 1002.6 |
| 20260505094845 | 30 | 295 | 0.0 | 0.0 | 0.00 | 0.00 | 0.00 | 77 | 1002.6 |
| 20260505094409 | 31 | 293 | 0.0 | 0.0 | 0.00 | 0.00 | 0.00 | 76 | 1002.5 |
| 20260505093829 | 31 | 295 | 0.0 | 0.0 | 0.00 | 0.00 | 0.00 | 76 | 1002.4 |
| 20260505093357 | 31 | 293 | 0.0 | 0.0 | 0.00 | 0.00 | 0.00 | 78 | 1002.3 |
| 20260505092921 | 31 | 293 | 0.0 | 0.0 | 0.00 | 0.00 | 0.00 | 77 | 1002.2 |
| 20260505092346 | 31 | 294 | 0.0 | 0.0 | 0.00 | 0.00 | 0.00 | 78 | 1002.1 |
| 20260505091910 | 32 | 293 | 0.0 | 0.0 | 0.00 | 0.00 | 0.00 | 79 | 1001.9 |
| 20260505091329 | 32 | 293 | 0.0 | 0.0 | 0.00 | 0.00 | 0.00 | 78 | 1001.8 |
| 20260505090845 | 32 | 293 | 0.0 | 0.0 | 0.00 | 0.00 | 0.00 | 74 | 1001.8 |
| 20260505090349 | 33 | 293 | 0.0 | 0.0 | 0.00 | 0.00 | 0.00 | 72 | 1001.8 |
| 20260505085351 | 34 | 293 | 0.0 | 0.0 | 0.00 | 0.00 | 0.00 | 71 | 1001.7 |
| 20260505084852 | 35 | 293 | 0.0 | 0.0 | 0.00 | 0.00 | 0.00 | 69 | 1001.7 |
| 20260505084418 | 36 | 293 | 0.0 | 0.0 | 0.00 | 0.00 | 0.00 | 68 | 1001.6 |
| 20260505083920 | 36 | 293 | 0.0 | 0.0 | 0.00 | 0.00 | 0.00 | 69 | 1001.6 |
| 20260505083337 | 37 | 293 | 0.0 | 0.0 | 0.00 | 0.00 | 0.00 | 62 | 1001.6 |
| 20260505082905 | 37 | 293 | 0.0 | 1.0 | 0.00 | 0.00 | 0.00 | 60 | 1001.7 |
| 20260505082322 | 38 | 293 | 0.0 | 1.0 | 0.00 | 0.00 | 0.00 | 59 | 1001.7 |
| 20260505081844 | 38 | 293 | 0.0 | 1.0 | 0.00 | 0.00 | 0.00 | 57 | 1001.6 |
| 20260505081408 | 39 | 303 | 0.0 | 1.0 | 0.00 | 0.00 | 0.00 | 57 | 1001.6 |
| 20260505080915 | 39 | 304 | 0.0 | 2.0 | 0.00 | 0.00 | 0.00 | 56 | 1001.6 |
| 20260505080326 | 39 | 298 | 0.0 | 2.0 | 0.00 | 0.00 | 0.00 | 56 | 1001.6 |
| 20260505075850 | 39 | 296 | 0.0 | 3.0 | 0.00 | 0.00 | 0.00 | 55 | 1001.5 |
| 20260505075405 | 40 | 290 | 0.0 | 3.0 | 0.00 | 0.00 | 0.00 | 55 | 1001.5 |
| 20260505074822 | 40 | 298 | 1.0 | 3.0 | 0.00 | 0.00 | 0.00 | 55 | 1001.5 |
| 20260505074342 | 40 | 309 | 1.0 | 4.0 | 0.00 | 0.00 | 0.00 | 54 | 1001.4 |
| 20260505073909 | 40 | 304 | 1.0 | 5.0 | 0.00 | 0.00 | 0.00 | 53 | 1001.5 |
| 20260505073331 | 41 | 309 | 2.0 | 5.0 | 0.00 | 0.00 | 0.00 | 53 | 1001.5 |
| 20260505072857 | 41 | 290 | 2.0 | 5.0 | 0.00 | 0.00 | 0.00 | 52 | 1001.5 |
| 20260505072419 | 41 | 280 | 1.0 | 3.0 | 0.00 | 0.00 | 0.00 | 52 | 1001.5 |
| 20260505071838 | 41 | 293 | 0.0 | 5.0 | 0.00 | 0.00 | 0.00 | 52 | 1001.5 |
| 20260505071355 | 41 | 292 | 1.0 | 6.0 | 0.00 | 0.00 | 0.00 | 51 | 1001.5 |
| 20260505070917 | 41 | 272 | 2.0 | 6.0 | 0.00 | 0.00 | 0.00 | 50 | 1001.5 |
| 20260505070336 | 42 | 303 | 1.0 | 8.0 | 0.00 | 0.00 | 0.00 | 50 | 1001.5 |
| 20260505065827 | 42 | 283 | 2.0 | 6.0 | 0.00 | 0.00 | 0.00 | 50 | 1001.5 |
| 20260505065332 | 42 | 289 | 3.0 | 13.0 | 0.00 | 0.00 | 0.00 | 50 | 1001.5 |
| 20260505064839 | 42 | 312 | 5.0 | 13.0 | 0.00 | 0.00 | 0.00 | 49 | 1001.5 |
| 20260505064325 | 42 | 312 | 4.0 | 8.0 | 0.00 | 0.00 | 0.00 | 48 | 1001.5 |
| 20260505063830 | 42 | 303 | 4.0 | 7.0 | 0.00 | 0.00 | 0.00 | 48 | 1001.4 |
| 20260505063341 | 43 | 292 | 2.0 | 5.0 | 0.00 | 0.00 | 0.00 | 47 | 1001.5 |
| 20260505062827 | 43 | 309 | 2.0 | 9.0 | 0.00 | 0.00 | 0.00 | 47 | 1001.5 |
| 20260505062333 | 43 | 313 | 2.0 | 11.0 | 0.00 | 0.00 | 0.00 | 48 | 1001.4 |
| 20260505061859 | 43 | 298 | 5.0 | 11.0 | 0.00 | 0.00 | 0.00 | 46 | 1001.5 |
| 20260505061345 | 43 | 300 | 6.0 | 11.0 | 0.00 | 0.00 | 0.00 | 46 | 1001.5 |
| 20260505060829 | 43 | 307 | 3.0 | 7.0 | 0.00 | 0.00 | 0.00 | 47 | 1001.4 |
| 20260505060334 | 43 | 293 | 4.0 | 7.0 | 0.00 | 0.00 | 0.00 | 46 | 1001.4 |
| 20260505055838 | 44 | 296 | 4.0 | 9.0 | 0.00 | 0.00 | 0.00 | 46 | 1001.2 |
| 20260505055323 | 44 | 302 | 4.0 | 11.0 | 0.00 | 0.00 | 0.00 | 47 | 1001.2 |
| 20260505054829 | 44 | 268 | 6.0 | 11.0 | 0.00 | 0.00 | 0.00 | 47 | 1001.1 |
| 20260505054333 | 44 | 293 | 3.0 | 10.0 | 0.00 | 0.00 | 0.00 | 48 | 1001.2 |
| 20260505053839 | 44 | 288 | 4.0 | 11.0 | 0.00 | 0.00 | 0.00 | 48 | 1001.2 |
| 20260505053325 | 45 | 288 | 6.0 | 13.0 | 0.00 | 0.00 | 0.00 | 47 | 1001.1 |
| 20260505052829 | 45 | 260 | 6.0 | 12.0 | 0.00 | 0.00 | 0.00 | 48 | 1001.1 |
| 20260505052335 | 45 | 282 | 3.0 | 11.0 | 0.00 | 0.00 | 0.00 | 47 | 1001.0 |
| 20260505051825 | 45 | 296 | 5.0 | 13.0 | 0.00 | 0.00 | 0.00 | 47 | 1001.0 |
| 20260505051331 | 45 | 306 | 8.0 | 13.0 | 0.00 | 0.00 | 0.00 | 48 | 1000.9 |
| 20260505050836 | 46 | 290 | 5.0 | 11.0 | 0.00 | 0.00 | 0.00 | 49 | 1000.8 |
| 20260505050323 | 46 | 257 | 7.0 | 13.0 | 0.00 | 0.00 | 0.00 | 48 | 1000.8 |
| 20260505041326 | 48 | 312 | 6.0 | 15.0 | 0.00 | 0.00 | 0.00 | 48 | 999.4 |
| 20260505040851 | 48 | 309 | 3.0 | 14.0 | 0.00 | 0.00 | 0.00 | 48 | 999.2 |
| 20260505040400 | 49 | 321 | 3.0 | 14.0 | 0.00 | 0.00 | 0.00 | 47 | 999.0 |
| 20260505035909 | 49 | 244 | 3.0 | 9.0 | 0.00 | 0.00 | 0.00 | 47 | 998.8 |
| 20260505035411 | 49 | 295 | 4.0 | 12.0 | 0.00 | 0.00 | 0.00 | 47 | 998.8 |
| 20260505034832 | 49 | 274 | 5.0 | 12.0 | 0.00 | 0.00 | 0.00 | 47 | 998.6 |
| 20260505034421 | 49 | 306 | 3.0 | 11.0 | 0.00 | 0.00 | 0.00 | 47 | 998.5 |
| 20260505033844 | 49 | 292 | 5.0 | 11.0 | 0.00 | 0.00 | 0.00 | 47 | 998.5 |
| 20260505032846 | 50 | 321 | 4.0 | 9.0 | 0.00 | 0.00 | 0.00 | 47 | 998.5 |
| 20260505032343 | 50 | 300 | 4.0 | 8.0 | 0.00 | 0.00 | 0.00 | 47 | 998.4 |
| 20260505031322 | 51 | 320 | 4.0 | 9.0 | 0.00 | 0.00 | 0.00 | 46 | 998.2 |
| 20260505030823 | 51 | 320 | 3.0 | 9.0 | 0.00 | 0.00 | 0.00 | 46 | 998.1 |
| 20260505030347 | 51 | 317 | 4.0 | 11.0 | 0.00 | 0.00 | 0.00 | 46 | 998.1 |
| 20260505025342 | 52 | 328 | 4.0 | 12.0 | 0.00 | 0.00 | 0.00 | 46 | 997.9 |
| 20260505024909 | 52 | 18 | 4.0 | 12.0 | 0.00 | 0.00 | 0.00 | 45 | 997.8 |
| 20260505024409 | 53 | 305 | 4.0 | 11.0 | 0.00 | 0.00 | 0.00 | 44 | 997.7 |
| 20260505023826 | 53 | 309 | 5.0 | 10.0 | 0.00 | 0.00 | 0.00 | 43 | 997.7 |
| 20260505023349 | 53 | 315 | 3.0 | 10.0 | 0.00 | 0.00 | 0.00 | 43 | 997.5 |
| 20260505022851 | 53 | 344 | 3.0 | 10.0 | 0.00 | 0.00 | 0.00 | 43 | 997.5 |
| 20260505022353 | 54 | 281 | 4.0 | 12.0 | 0.00 | 0.00 | 0.00 | 42 | 997.4 |
| 20260505021916 | 54 | 305 | 4.0 | 12.0 | 0.00 | 0.00 | 0.00 | 42 | 997.2 |
| 20260505021417 | 54 | 293 | 4.0 | 13.0 | 0.00 | 0.00 | 0.00 | 41 | 997.3 |
| 20260505020839 | 55 | 327 | 7.0 | 13.0 | 0.00 | 0.00 | 0.00 | 41 | 997.1 |
| 20260505020349 | 55 | 282 | 6.0 | 10.0 | 0.00 | 0.00 | 0.00 | 40 | 997.0 |
| 20260505015854 | 55 | 302 | 5.0 | 14.0 | 0.00 | 0.00 | 0.00 | 40 | 996.9 |
| 20260505015401 | 56 | 314 | 9.0 | 14.0 | 0.00 | 0.00 | 0.00 | 40 | 996.8 |
| 20260505014911 | 56 | 312 | 5.0 | 14.0 | 0.00 | 0.00 | 0.00 | 40 | 996.6 |
| 20260505014418 | 56 | 311 | 7.0 | 20.0 | 0.00 | 0.00 | 0.00 | 40 | 996.5 |
| 20260505013843 | 57 | 288 | 9.0 | 20.0 | 0.00 | 0.00 | 0.00 | 40 | 996.3 |
| 20260505013406 | 57 | 306 | 6.0 | 10.0 | 0.00 | 0.00 | 0.00 | 40 | 996.0 |
| 20260505012851 | 57 | 312 | 5.0 | 17.0 | 0.00 | 0.00 | 0.00 | 39 | 995.9 |
| 20260505012353 | 58 | 347 | 7.0 | 17.0 | 0.00 | 0.00 | 0.00 | 39 | 995.7 |
| 20260505011901 | 58 | 312 | 5.0 | 20.0 | 0.00 | 0.00 | 0.00 | 39 | 995.6 |
| 20260505011326 | 59 | 324 | 5.0 | 13.0 | 0.00 | 0.00 | 0.00 | 39 | 995.5 |
| 20260505010848 | 59 | 296 | 6.0 | 14.0 | 0.00 | 0.00 | 0.00 | 37 | 995.4 |
| 20260505010413 | 60 | 300 | 7.0 | 14.0 | 0.00 | 0.00 | 0.00 | 36 | 995.2 |
| 20260505005835 | 60 | 316 | 8.0 | 19.0 | 0.00 | 0.00 | 0.00 | 31 | 995.1 |
| 20260505005358 | 61 | 283 | 9.0 | 21.0 | 0.00 | 0.00 | 0.00 | 31 | 994.8 |
| 20260505004922 | 61 | 302 | 9.0 | 21.0 | 0.00 | 0.00 | 0.00 | 31 | 994.8 |
| 20260505004324 | 61 | 345 | 9.0 | 21.0 | 0.00 | 0.00 | 0.00 | 31 | 994.6 |
| 20260505003846 | 62 | 310 | 6.0 | 18.0 | 0.00 | 0.00 | 0.00 | 34 | 994.4 |
| 20260505002844 | 62 | 271 | 5.0 | 14.0 | 0.00 | 0.00 | 0.00 | 33 | 994.2 |
| 20260505002408 | 62 | 328 | 5.0 | 14.0 | 0.00 | 0.00 | 0.00 | 32 | 994.1 |
| 20260505001918 | 63 | 298 | 6.0 | 15.0 | 0.00 | 0.00 | 0.00 | 32 | 994.0 |
| 20260505001442 | 63 | 311 | 8.0 | 19.0 | 0.00 | 0.00 | 0.00 | 31 | 993.9 |
| 20260505000909 | 63 | 302 | 7.0 | 20.0 | 0.00 | 0.00 | 0.00 | 31 | 993.8 |
| 20260505000326 | 63 | 293 | 10.0 | 16.0 | 0.00 | 0.00 | 0.00 | 31 | 993.8 |
| 20260504235826 | 63 | 262 | 7.0 | 20.0 | 0.00 | 0.00 | 0.00 | 31 | 993.7 |
| 20260504235336 | 63 | 281 | 10.0 | 20.0 | 0.00 | 0.00 | 0.00 | 31 | 993.6 |
| 20260504234844 | 63 | 302 | 10.0 | 20.0 | 0.00 | 0.00 | 0.00 | 31 | 993.5 |
| 20260504234407 | 64 | 317 | 11.0 | 20.0 | 0.00 | 0.00 | 0.00 | 31 | 993.8 |
| 20260504233823 | 64 | 316 | 8.0 | 14.0 | 0.00 | 0.00 | 0.00 | 31 | 993.4 |
| 20260504233345 | 64 | 299 | 5.0 | 14.0 | 0.00 | 0.00 | 0.00 | 32 | 993.6 |
| 20260504232345 | 65 | 318 | 7.0 | 17.0 | 0.00 | 0.00 | 0.00 | 31 | 993.5 |
| 20260504231343 | 65 | 303 | 6.0 | 16.0 | 0.00 | 0.00 | 0.00 | 32 | 993.5 |
| 20260504230342 | 66 | 326 | 8.0 | 18.0 | 0.00 | 0.00 | 0.00 | 32 | 993.5 |
| 20260504225908 | 66 | 326 | 7.0 | 19.0 | 0.00 | 0.00 | 0.00 | 32 | 993.5 |
| 20260504225326 | 66 | 299 | 9.0 | 19.0 | 0.00 | 0.00 | 0.00 | 32 | 993.4 |
| 20260504224848 | 66 | 243 | 7.0 | 15.0 | 0.00 | 0.00 | 0.00 | 32 | 993.3 |
| 20260504224415 | 66 | 318 | 6.0 | 12.0 | 0.00 | 0.00 | 0.00 | 32 | 993.3 |
| 20260504223917 | 66 | 314 | 7.0 | 16.0 | 0.00 | 0.00 | 0.00 | 31 | 993.2 |
| 20260504223339 | 66 | 312 | 8.0 | 21.0 | 0.00 | 0.00 | 0.00 | 31 | 993.3 |
| 20260504222842 | 66 | 254 | 10.0 | 21.0 | 0.00 | 0.00 | 0.00 | 30 | 993.3 |
| 20260504222404 | 66 | 264 | 9.0 | 18.0 | 0.00 | 0.00 | 0.00 | 30 | 993.3 |
| 20260504221906 | 66 | 267 | 10.0 | 24.0 | 0.00 | 0.00 | 0.00 | 30 | 993.3 |
| 20260504221409 | 66 | 213 | 9.0 | 24.0 | 0.00 | 0.00 | 0.00 | 30 | 993.2 |
| 20260504220832 | 66 | 278 | 6.0 | 16.0 | 0.00 | 0.00 | 0.00 | 30 | 993.2 |
| 20260504220355 | 67 | 290 | 7.0 | 22.0 | 0.00 | 0.00 | 0.00 | 29 | 993.1 |
| 20260504215904 | 67 | 283 | 9.0 | 23.0 | 0.00 | 0.00 | 0.00 | 28 | 993.0 |
| 20260504215323 | 67 | 309 | 10.0 | 23.0 | 0.00 | 0.00 | 0.00 | 28 | 992.9 |
| 20260504214844 | 67 | 313 | 8.0 | 23.0 | 0.00 | 0.00 | 0.00 | 28 | 992.6 |
| 20260504213847 | 68 | 246 | 10.0 | 17.0 | 0.00 | 0.00 | 0.00 | 28 | 992.6 |
| 20260504213415 | 68 | 219 | 7.0 | 16.0 | 0.00 | 0.00 | 0.00 | 28 | 992.6 |
| 20260504212842 | 69 | 65 | 6.0 | 14.0 | 0.00 | 0.00 | 0.00 | 28 | 992.5 |
| 20260504212403 | 69 | 278 | 4.0 | 15.0 | 0.00 | 0.00 | 0.00 | 29 | 992.3 |
| 20260504211824 | 70 | 219 | 7.0 | 20.0 | 0.00 | 0.00 | 0.00 | 28 | 992.3 |
| 20260504211345 | 70 | 243 | 7.0 | 22.0 | 0.00 | 0.00 | 0.00 | 27 | 992.2 |
| 20260504210345 | 70 | 305 | 10.0 | 20.0 | 0.00 | 0.00 | 0.00 | 27 | 991.9 |
| 20260504205342 | 71 | 260 | 4.0 | 20.0 | 0.00 | 0.00 | 0.00 | 29 | 991.9 |
| 20260504204343 | 71 | 286 | 6.0 | 15.0 | 0.00 | 0.00 | 0.00 | 29 | 991.7 |
| 20260504203343 | 70 | 314 | 7.0 | 22.0 | 0.00 | 0.00 | 0.00 | 28 | 991.8 |
| 20260504202345 | 71 | 326 | 9.0 | 22.0 | 0.00 | 0.00 | 0.00 | 27 | 991.8 |
| 20260504201912 | 71 | 299 | 8.0 | 22.0 | 0.00 | 0.00 | 0.00 | 26 | 991.7 |
| 20260504201328 | 71 | 253 | 9.0 | 26.0 | 0.00 | 0.00 | 0.00 | 26 | 992.0 |
| 20260504200851 | 71 | 306 | 15.0 | 25.0 | 0.00 | 0.00 | 0.00 | 24 | 991.9 |
| 20260504200420 | 71 | 285 | 12.0 | 24.0 | 0.00 | 0.00 | 0.00 | 26 | 992.1 |
| 20260504195842 | 71 | 288 | 7.0 | 29.0 | 0.00 | 0.00 | 0.00 | 26 | 991.7 |
| 20260504195410 | 71 | 264 | 10.0 | 29.0 | 0.00 | 0.00 | 0.00 | 24 | 991.6 |
| 20260504194837 | 70 | 314 | 10.0 | 27.0 | 0.00 | 0.00 | 0.00 | 24 | 991.8 |
| 20260504194402 | 71 | 298 | 11.0 | 21.0 | 0.00 | 0.00 | 0.00 | 24 | 991.8 |
| 20260504193929 | 72 | 295 | 10.0 | 20.0 | 0.00 | 0.00 | 0.00 | 24 | 991.8 |
| 20260504193330 | 72 | 260 | 7.0 | 15.0 | 0.00 | 0.00 | 0.00 | 29 | 991.8 |
| 20260504192855 | 71 | 274 | 7.0 | 17.0 | 0.00 | 0.00 | 0.00 | 32 | 991.6 |
| 20260504192359 | 71 | 290 | 7.0 | 21.0 | 0.00 | 0.00 | 0.00 | 34 | 991.6 |
| 20260504191823 | 71 | 293 | 12.0 | 23.0 | 0.00 | 0.00 | 0.00 | 33 | 991.6 |
| 20260504191347 | 71 | 316 | 8.0 | 21.0 | 0.00 | 0.00 | 0.00 | 35 | 991.5 |
| 20260504190916 | 71 | 281 | 11.0 | 23.0 | 0.00 | 0.00 | 0.00 | 34 | 991.5 |
| 20260504190344 | 71 | 13 | 11.0 | 23.0 | 0.00 | 0.00 | 0.00 | 34 | 991.6 |
| 20260504185906 | 72 | 269 | 10.0 | 20.0 | 0.00 | 0.00 | 0.00 | 34 | 991.6 |
| 20260504185412 | 72 | 310 | 9.0 | 19.0 | 0.00 | 0.00 | 0.00 | 33 | 991.4 |
| 20260504184936 | 72 | 283 | 7.0 | 22.0 | 0.00 | 0.00 | 0.00 | 35 | 991.4 |
| 20260504184325 | 72 | 286 | 5.0 | 17.0 | 0.00 | 0.00 | 0.00 | 35 | 991.4 |
| 20260504183849 | 72 | 275 | 8.0 | 17.0 | 0.00 | 0.00 | 0.00 | 36 | 991.5 |
| 20260504183416 | 71 | 288 | 8.0 | 17.0 | 0.00 | 0.00 | 0.00 | 36 | 991.4 |
| 20260504182942 | 71 | 278 | 5.0 | 25.0 | 0.00 | 0.00 | 0.00 | 36 | 991.4 |
| 20260504181901 | 71 | 298 | 11.0 | 25.0 | 0.00 | 0.00 | 0.00 | 35 | 991.3 |
| 20260504181403 | 72 | 302 | 7.0 | 17.0 | 0.00 | 0.00 | 0.00 | 36 | 991.4 |
| 20260504180343 | 72 | 283 | 9.0 | 20.0 | 0.00 | 0.00 | 0.00 | 36 | 991.4 |
| 20260504175341 | 71 | 304 | 10.0 | 21.0 | 0.00 | 0.00 | 0.00 | 36 | 991.1 |
| 20260504174904 | 71 | 321 | 8.0 | 20.0 | 0.00 | 0.00 | 0.00 | 37 | 991.0 |
| 20260504174332 | 71 | 285 | 10.0 | 21.0 | 0.00 | 0.00 | 0.00 | 36 | 991.3 |
| 20260504173859 | 72 | 272 | 10.0 | 21.0 | 0.00 | 0.00 | 0.00 | 36 | 991.2 |
| 20260504173428 | 72 | 300 | 9.0 | 21.0 | 0.00 | 0.00 | 0.00 | 36 | 991.2 |